Stündliche Wetter Cehok

Heute, 23 Januar, Samstag

Zeit Temperatur Niederschläge Wind Luftdruck Luftfeuchtigkeit
00:00 -6°C° 0 mm 1 m/S 629 mmHg 27%
01:00 -6°C° 0 mm 1 m/S 629 mmHg 26%
02:00 -6°C° 0 mm 1 m/S 629 mmHg 25%
03:00 -6°C° 0 mm 1 m/S 629 mmHg 24%
04:00 -6°C° 0 mm 1 m/S 629 mmHg 24%
05:00 -6°C° 0 mm 1 m/S 629 mmHg 23%
06:00 -6°C° 0 mm 1 m/S 629 mmHg 23%
07:00 -4°C° 0 mm 1 m/S 629 mmHg 26%
08:00 -2°C° 0 mm 1 m/S 630 mmHg 30%
09:00 -1°C° 0 mm 1 m/S 630 mmHg 34%
10:00 +1°C° 0 mm 1 m/S 630 mmHg 36%
11:00 +2°C° 0 mm 1 m/S 631 mmHg 38%
12:00 +4°C° 0 mm 1 m/S 631 mmHg 40%
13:00 +3°C° 0 mm 1 m/S 630 mmHg 45%
14:00 +3°C° 0 mm 1 m/S 630 mmHg 49%
15:00 +3°C° 0 mm 1 m/S 629 mmHg 53%
16:00 0°C° 0 mm 1 m/S 629 mmHg 47%
17:00 -2°C° 0 mm 1 m/S 628 mmHg 41%
18:00 -4°C° 0 mm 1 m/S 627 mmHg 35%
19:00 -6°C° 0 mm 1 m/S 627 mmHg 30%
20:00 -6°C° 0 mm 1 m/S 627 mmHg 25%
21:00 -6°C° 0 mm 1 m/S 627 mmHg 21%
22:00 -6°C° 0 mm 1 m/S 627 mmHg 19%
23:00 -6°C° 0 mm 1 m/S 626 mmHg 18%

Morgen, 24 Januar, Sonntag

Zeit Temperatur Niederschläge Wind Luftdruck Luftfeuchtigkeit
00:00 -6°C° 0 mm 1 m/S 626 mmHg 16%
01:00 -6°C° 0 mm 1 m/S 626 mmHg 16%
02:00 -6°C° 0 mm 1 m/S 626 mmHg 15%
03:00 -6°C° 0 mm 1 m/S 626 mmHg 15%
04:00 -6°C° 0 mm 1 m/S 626 mmHg 15%
05:00 -6°C° 0 mm 1 m/S 626 mmHg 15%
06:00 -6°C° 0 mm 1 m/S 626 mmHg 14%
07:00 -3°C° 0 mm 1 m/S 626 mmHg 19%
08:00 -2°C° 0 mm 1 m/S 627 mmHg 23%
09:00 0°C° 0 mm 1 m/S 628 mmHg 27%
10:00 +1°C° 0 mm 1 m/S 628 mmHg 31%
11:00 +3°C° 0 mm 1 m/S 628 mmHg 34%
12:00 +4°C° 0 mm 1 m/S 628 mmHg 38%
13:00 +4°C° 0 mm 1 m/S 628 mmHg 43%
14:00 +4°C° 0 mm 1 m/S 628 mmHg 47%
15:00 +4°C° 0 mm 1 m/S 627 mmHg 52%
16:00 +2°C° 0 mm 1 m/S 627 mmHg 46%
17:00 0°C° 0 mm 1 m/S 626 mmHg 40%
18:00 -2°C° 0 mm 1 m/S 626 mmHg 34%
19:00 -2°C° 0 mm 1 m/S 626 mmHg 32%
20:00 -2°C° 0 mm 1 m/S 626 mmHg 30%
21:00 -2°C° 0 mm 1 m/S 626 mmHg 28%
22:00 -2°C° 0 mm 1 m/S 625 mmHg 29%
23:00 -2°C° 0 mm 1 m/S 625 mmHg 30%

übermorgen, 25 Januar, Montag

Zeit Temperatur Niederschläge Wind Luftdruck Luftfeuchtigkeit
00:00 -2°C° 0 mm 1 m/S 625 mmHg 31%
01:00 -2°C° 0 mm 1 m/S 625 mmHg 33%
02:00 -1°C° 0 mm 1 m/S 625 mmHg 34%
03:00 -1°C° 0 mm 1 m/S 625 mmHg 36%
04:00 -1°C° 0 mm 1 m/S 625 mmHg 36%
05:00 -1°C° 0 mm 1 m/S 625 mmHg 37%
06:00 -1°C° 0 mm 1 m/S 625 mmHg 37%
07:00 0°C° 0 mm 1 m/S 626 mmHg 39%
08:00 +1°C° 0 mm 1 m/S 626 mmHg 41%
09:00 +2°C° 0 mm 1 m/S 627 mmHg 43%
10:00 +4°C° 0 mm 1 m/S 627 mmHg 45%
11:00 +5°C° 0 mm 1 m/S 627 mmHg 47%
12:00 +7°C° 0 mm 1 m/S 627 mmHg 49%
13:00 +6°C° 0 mm 1 m/S 627 mmHg 52%
14:00 +6°C° 0 mm 1 m/S 627 mmHg 54%
15:00 +6°C° 0 mm 1 m/S 627 mmHg 57%
16:00 +4°C° 0 mm 1 m/S 626 mmHg 52%
17:00 +2°C° 0 mm 1 m/S 625 mmHg 46%
18:00 0°C° 0 mm 1 m/S 625 mmHg 41%
19:00 0°C° 0 mm 1 m/S 625 mmHg 39%
20:00 0°C° 0 mm 1 m/S 625 mmHg 37%
21:00 -2°C° 0 mm 2 m/S 625 mmHg 35%
22:00 -2°C° 0 mm 2 m/S 625 mmHg 35%
23:00 -3°C° 0 mm 2 m/S 624 mmHg 36%

26 Januar, Dienstag

Zeit Temperatur Niederschläge Wind Luftdruck Luftfeuchtigkeit
00:00 -3°C° 0 mm 2 m/S 624 mmHg 36%
01:00 -3°C° 0 mm 2 m/S 625 mmHg 36%
02:00 -2°C° 0 mm 2 m/S 625 mmHg 37%
03:00 -2°C° 0 mm 2 m/S 625 mmHg 38%
04:00 -3°C° 0 mm 2 m/S 625 mmHg 37%
05:00 -3°C° 0 mm 2 m/S 625 mmHg 37%
06:00 -3°C° 0 mm 2 m/S 624 mmHg 36%
07:00 -2°C° 0 mm 2 m/S 625 mmHg 38%
08:00 +2°C° 0 mm 1 m/S 626 mmHg 40%
09:00 +3°C° 0 mm 1 m/S 626 mmHg 41%
10:00 +4°C° 0 mm 1 m/S 626 mmHg 44%
11:00 +6°C° 0 mm 1 m/S 626 mmHg 46%
12:00 +6°C° 0 mm 2 m/S 627 mmHg 49%
13:00 +6°C° 0 mm 2 m/S 626 mmHg 50%
14:00 +7°C° 0 mm 1 m/S 626 mmHg 52%
15:00 +6°C° 0 mm 1 m/S 626 mmHg 54%
16:00 +4°C° 0 mm 2 m/S 626 mmHg 50%
17:00 +3°C° 0 mm 2 m/S 625 mmHg 47%
18:00 +1°C° 0 mm 2 m/S 625 mmHg 44%
19:00 +1°C° 0 mm 2 m/S 625 mmHg 43%
20:00 +2°C° 0 mm 1 m/S 625 mmHg 41%
21:00 +2°C° 0 mm 1 m/S 625 mmHg 40%
22:00 +2°C° 0 mm 1 m/S 625 mmHg 40%
23:00 +2°C° 0 mm 1 m/S 625 mmHg 40%

27 Januar, Mittwoch

Zeit Temperatur Niederschläge Wind Luftdruck Luftfeuchtigkeit
00:00 +1°C° 0 mm 1 m/S 625 mmHg 39%
01:00 +2°C° 0 mm 1 m/S 625 mmHg 39%
02:00 +2°C° 0 mm 1 m/S 624 mmHg 39%
03:00 +2°C° 0 mm 1 m/S 624 mmHg 39%
04:00 +1°C° 0 mm 2 m/S 624 mmHg 39%
05:00 +1°C° 0 mm 2 m/S 624 mmHg 39%
06:00 -1°C° 0 mm 2 m/S 624 mmHg 39%
07:00 +1°C° 0 mm 2 m/S 624 mmHg 41%
08:00 +2°C° 0 mm 2 m/S 624 mmHg 43%
09:00 +3°C° 0 mm 2 m/S 625 mmHg 45%
10:00 +4°C° 0 mm 2 m/S 625 mmHg 47%
11:00 +4°C° 0 mm 3 m/S 625 mmHg 48%
12:00 +5°C° 0 mm 3 m/S 625 mmHg 50%
13:00 +5°C° 0 mm 3 m/S 624 mmHg 52%
14:00 +5°C° 0 mm 3 m/S 623 mmHg 53%
15:00 +5°C° 0 mm 2 m/S 623 mmHg 55%
16:00 +4°C° 0 mm 2 m/S 622 mmHg 53%
17:00 +3°C° 0 mm 2 m/S 622 mmHg 52%
18:00 +2°C° 0 mm 2 m/S 621 mmHg 51%
19:00 +1°C° 0 mm 2 m/S 621 mmHg 50%
20:00 +1°C° 0 mm 2 m/S 621 mmHg 49%
21:00 +1°C° 0 mm 2 m/S 621 mmHg 48%
22:00 +1°C° 0 mm 2 m/S 620 mmHg 48%
23:00 +1°C° 0 mm 2 m/S 620 mmHg 48%

28 Januar, Donnerstag

Zeit Temperatur Niederschläge Wind Luftdruck Luftfeuchtigkeit
00:00 +1°C° 0 mm 2 m/S 619 mmHg 48%
01:00 +2°C° 0.1 mm 2 m/S 619 mmHg 50%
02:00 +2°C° 0.1 mm 2 m/S 619 mmHg 52%
03:00 +2°C° 0.1 mm 2 m/S 619 mmHg 54%
04:00 +1°C° 0.4 mm 2 m/S 618 mmHg 65%
05:00 0°C° 0.4 mm 3 m/S 618 mmHg 76%
06:00 -1°C° 0.4 mm 3 m/S 617 mmHg 86%
07:00 0°C° 0.1 mm 3 m/S 617 mmHg 85%
08:00 +1°C° 0.1 mm 3 m/S 617 mmHg 83%
09:00 +2°C° 0.1 mm 3 m/S 618 mmHg 82%
10:00 +2°C° 0.2 mm 3 m/S 617 mmHg 80%
11:00 +3°C° 0.2 mm 3 m/S 617 mmHg 79%
12:00 +3°C° 0.2 mm 3 m/S 617 mmHg 77%
13:00 +3°C° 0 mm 3 m/S 617 mmHg 76%
14:00 +3°C° 0 mm 3 m/S 617 mmHg 74%
15:00 +3°C° 0 mm 3 m/S 616 mmHg 73%
16:00 +2°C° 0.2 mm 3 m/S 616 mmHg 79%
17:00 +1°C° 0.2 mm 3 m/S 616 mmHg 84%
18:00 -1°C° 0.2 mm 2 m/S 616 mmHg 90%
19:00 -1°C° 0.7 mm 2 m/S 616 mmHg 91%
20:00 +1°C° 0.7 mm 2 m/S 616 mmHg 91%
21:00 +1°C° 0.7 mm 2 m/S 616 mmHg 92%
Mehr zeigen

Wir brauchen deine Erlaubnis

Meteoprog und unser Service Anbieter werden persönliche Daten aufbewahren, so wie Cookies, Geräte Bezeichnung oder ähnliche Technologien von deinem Gerät und Prozess, so wie Persönliche Daten Inhalte und Werbungen, genauso wie social Media und den Verkehr zu analysieren.

  • Aufbewahrung und/oder Zugang zu deiner Geräte Informationen.

    Cookies, Geräte Bezeichnung oder andere Informationen, können aufbewahrt oder Zugang zu deinem Gerät erhalten, für den Grund, der oben angegeben wird.

  • Personalisierte Werbung und Inhalte, Messungen, Einblick in das Publikum und Produkt Entwicklung.

    Werbungen und Inhalte können personalisiert werden, basierend auf ein Profil. Mehr Daten können besser personalisierte Werbungen und Inhalte hinzufügen. Werbung und Inhalte können gezeigt und gemessen werden. Einblicke über das Publikum, welche die Werbung gesehen haben und den Inhalt, können abgeleitet werden. So wie Daten können genutzt werden, um es zu verbessern oder die Benutzer Erfahrung zu verbessern das System und die Software.

Wenn du “Ich stimme zu” klickst, erlaubst du uns, die Cookies zu benutzen die Geräte Bezeichnung, den Web oder ähnliche Technologien zu benutzen. Deine Settings, können in deinem Gerät bei deinem Browser geändert werden.

Für den bestimmten Zweck, berechtigten Interessen beruhen darauf, mehr als auf den Inhalt. Du kannst mehr darüber in unseren Privaten und Cookie Politik lesen.